| time (UTC) | temp C | wind direction | speed KPH | gust KPH | rain 1hr cm | rain 24hr cm | rain mn cm | humidity % | barometer mb |
| 20260507170035 | 17 | 166 | 1.6 | 6.4 | 0.00 | 0.15 | 0.00 | 75 | 1012.1 |
| 20260507164541 | 17 | 141 | 4.8 | 9.7 | 0.00 | 0.15 | 0.00 | 75 | 1012.3 |
| 20260507163033 | 17 | 141 | 1.6 | 8.0 | 0.00 | 0.15 | 0.00 | 74 | 1012.3 |
| 20260507161547 | 17 | 159 | 4.8 | 9.7 | 0.00 | 0.15 | 0.00 | 72 | 1012.4 |
| 20260507160039 | 17 | 172 | 4.8 | 9.7 | 0.00 | 0.15 | 0.00 | 72 | 1012.2 |
| 20260507154531 | 17 | 169 | 6.4 | 14.5 | 0.00 | 0.15 | 0.00 | 71 | 1012.3 |
| 20260507153032 | 17 | 165 | 8.0 | 16.1 | 0.00 | 0.15 | 0.00 | 69 | 1012.3 |
| 20260507151531 | 18 | 174 | 4.8 | 12.9 | 0.00 | 0.15 | 0.00 | 65 | 1012.3 |
| 20260507150130 | 18 | 110 | 0.0 | 12.9 | 0.00 | 0.15 | 0.00 | 67 | 1012.2 |
| 20260507144532 | 18 | 132 | 3.2 | 11.3 | 0.00 | 0.15 | 0.00 | 65 | 1012.3 |
| 20260507143026 | 18 | 104 | 3.2 | 9.7 | 0.00 | 0.15 | 0.00 | 66 | 1012.4 |
| 20260507141526 | 18 | 121 | 4.8 | 9.7 | 0.00 | 0.15 | 0.00 | 64 | 1012.4 |
| 20260507140023 | 18 | 118 | 4.8 | 11.3 | 0.00 | 0.15 | 0.00 | 65 | 1012.8 |
| 20260507134522 | 18 | 39 | 0.0 | 9.7 | 0.00 | 0.15 | 0.00 | 65 | 1012.9 |
| 20260507133018 | 18 | 184 | 4.8 | 14.5 | 0.00 | 0.15 | 0.00 | 65 | 1013.1 |
| 20260507131527 | 17 | 96 | 6.4 | 16.1 | 0.00 | 0.15 | 0.00 | 65 | 1013.4 |
| 20260507130023 | 17 | 226 | 4.8 | 17.7 | 0.00 | 0.15 | 0.00 | 67 | 1013.5 |
| 20260507124519 | 17 | 131 | 3.2 | 16.1 | 0.00 | 0.15 | 0.00 | 66 | 1013.5 |
| 20260507123016 | 18 | 139 | 4.8 | 14.5 | 0.00 | 0.15 | 0.00 | 64 | 1013.6 |
| 20260507121515 | 17 | 136 | 8.0 | 14.5 | 0.00 | 0.15 | 0.00 | 66 | 1013.7 |
| 20260507120034 | 17 | 294 | 1.6 | 17.7 | 0.00 | 0.15 | 0.00 | 68 | 1013.7 |
| 20260507114513 | 17 | 91 | 3.2 | 14.5 | 0.00 | 0.15 | 0.00 | 67 | 1013.5 |
| 20260507113033 | 17 | 166 | 3.2 | 12.9 | 0.00 | 0.15 | 0.00 | 66 | 1013.8 |
| 20260507111512 | 17 | 121 | 3.2 | 17.7 | 0.00 | 0.15 | 0.00 | 66 | 1013.9 |
| 20260507110012 | 17 | 23 | 3.2 | 12.9 | 0.00 | 0.15 | 0.00 | 65 | 1013.9 |
| 20260507104514 | 17 | 127 | 4.8 | 16.1 | 0.00 | 0.15 | 0.00 | 62 | 1013.9 |
| 20260507103009 | 17 | 34 | 6.4 | 14.5 | 0.00 | 0.15 | 0.00 | 64 | 1013.9 |
| 20260507101507 | 17 | 99 | 3.2 | 16.1 | 0.00 | 0.15 | 0.00 | 66 | 1014.1 |
| 20260507100005 | 17 | 54 | 3.2 | 20.9 | 0.00 | 0.15 | 0.00 | 65 | 1014.1 |
| 20260507094503 | 16 | 128 | 9.7 | 24.1 | 0.00 | 0.15 | 0.00 | 67 | 1014.1 |
| 20260507093002 | 17 | 125 | 6.4 | 19.3 | 0.00 | 0.15 | 0.00 | 69 | 1014.0 |
| 20260507091502 | 17 | 97 | 8.0 | 20.9 | 0.00 | 0.15 | 0.00 | 69 | 1013.9 |
| 20260507090059 | 16 | 141 | 11.3 | 22.5 | 0.00 | 0.15 | 0.00 | 69 | 1013.8 |
| 20260507084603 | 17 | 84 | 9.7 | 20.9 | 0.00 | 0.15 | 0.00 | 67 | 1013.6 |
| 20260507083058 | 17 | 96 | 4.8 | 12.9 | 0.00 | 0.15 | 0.00 | 68 | 1013.7 |
| 20260507081557 | 17 | 89 | 3.2 | 11.3 | 0.00 | 0.15 | 0.00 | 70 | 1013.9 |
| 20260507080054 | 17 | 51 | 1.6 | 9.7 | 0.00 | 0.15 | 0.00 | 73 | 1014.0 |
| 20260507074554 | 17 | 125 | 0.0 | 11.3 | 0.00 | 0.15 | 0.00 | 76 | 1014.1 |
| 20260507073123 | 16 | 146 | 0.0 | 6.4 | 0.00 | 0.15 | 0.00 | 76 | 1014.0 |
| 20260507071548 | 16 | 44 | 1.6 | 4.8 | 0.00 | 0.15 | 0.00 | 77 | 1013.8 |
| 20260507070045 | 15 | 19 | 3.2 | 8.0 | 0.00 | 0.15 | 0.00 | 80 | 1013.8 |
| 20260507064552 | 15 | 330 | 0.0 | 0.0 | 0.00 | 0.15 | 0.00 | 84 | 1013.7 |
| 20260507063046 | 13 | 330 | 0.0 | 0.0 | 0.00 | 0.15 | 0.00 | 86 | 1013.6 |
| 20260507061540 | 12 | 338 | 0.0 | 4.8 | 0.00 | 0.15 | 0.00 | 88 | 1013.6 |
| 20260507060035 | 12 | 332 | 0.0 | 6.4 | 0.00 | 0.15 | 0.00 | 89 | 1013.5 |
| 20260507054535 | 12 | 343 | 0.0 | 0.0 | 0.00 | 0.15 | 0.00 | 90 | 1013.4 |
| 20260507053036 | 11 | 36 | 0.0 | 0.0 | 0.00 | 0.15 | 0.00 | 92 | 1013.3 |
| 20260507051532 | 11 | 338 | 0.0 | 6.4 | 0.00 | 0.15 | 0.00 | 92 | 1013.2 |
| 20260507050032 | -17 | 0.0 | 0.0 | 0.00 | 0.15 | 0.00 | 1013.2 | ||
| 20260507044525 | -17 | 0.0 | 0.0 | 0.00 | 0.15 | 0.00 | 1013.1 | ||
| 20260507043021 | -17 | 0.0 | 0.0 | 0.00 | 0.15 | 0.00 | 1013.0 | ||
| 20260507041516 | -17 | 0.0 | 0.0 | 0.00 | 0.15 | 0.00 | 1013.1 | ||
| 20260507040011 | -17 | 0.0 | 0.0 | 0.00 | 0.15 | 0.00 | 1013.1 | ||
| 20260507034507 | -17 | 0.0 | 0.0 | 0.00 | 0.15 | 0.00 | 1013.1 | ||
| 20260507033003 | -17 | 0.0 | 0.0 | 0.00 | 0.15 | 0.00 | 1013.1 | ||
| 20260507031559 | -17 | 0.0 | 0.0 | 0.00 | 0.15 | 0.00 | 1013.0 | ||
| 20260507030058 | -17 | 0.0 | 0.0 | 0.00 | 0.15 | 0.00 | 1012.9 | ||
| 20260507024557 | -17 | 0.0 | 0.0 | 0.00 | 0.15 | 0.00 | 1012.9 | ||
| 20260507023046 | -17 | 0.0 | 0.0 | 0.00 | 0.15 | 0.00 | 1013.0 | ||
| 20260507021541 | -17 | 0.0 | 0.0 | 0.00 | 0.15 | 0.00 | 1013.1 | ||
| 20260507020038 | -17 | 0.0 | 0.0 | 0.00 | 0.15 | 0.00 | 1013.1 | ||
| 20260507014533 | -17 | 0.0 | 0.0 | 0.00 | 0.15 | 0.00 | 1013.1 | ||
| 20260507013028 | -17 | 0.0 | 0.0 | 0.00 | 0.15 | 0.00 | 1013.2 | ||
| 20260507011524 | -17 | 0.0 | 0.0 | 0.00 | 0.15 | 0.00 | 1013.2 | ||
| 20260507010030 | -17 | 0.0 | 0.0 | 0.00 | 0.15 | 0.00 | 1013.3 | ||
| 20260507004515 | -17 | 0.0 | 0.0 | 0.00 | 0.15 | 0.00 | 1013.5 | ||
| 20260507003010 | -17 | 0.0 | 0.0 | 0.00 | 0.15 | 0.00 | 1013.6 | ||
| 20260507001506 | -17 | 0.0 | 0.0 | 0.00 | 0.15 | 0.00 | 1013.7 | ||
| 20260507000002 | -17 | 0.0 | 0.0 | 0.00 | 0.15 | 0.00 | 1013.5 | ||
| 20260506234607 | -17 | 0.0 | 0.0 | 0.00 | 0.15 | 0.00 | 1013.6 | ||
| 20260506233056 | -17 | 0.0 | 0.0 | 0.00 | 0.15 | 0.00 | 1013.7 | ||
| 20260506231552 | 13 | 316 | 1.6 | 8.0 | 0.00 | 0.15 | 0.00 | 89 | 1013.8 |
| 20260506230047 | 13 | 338 | 0.0 | 6.4 | 0.00 | 0.15 | 0.00 | 90 | 1013.9 |
| 20260506224603 | 13 | 326 | 3.2 | 12.9 | 0.00 | 0.15 | 0.00 | 90 | 1014.0 |
| 20260506223046 | 13 | 6 | 4.8 | 9.7 | 0.00 | 0.15 | 0.00 | 91 | 1014.1 |
| 20260506221543 | 13 | 18 | 1.6 | 9.7 | 0.00 | 0.15 | 0.00 | 91 | 1013.9 |
| 20260506220048 | 13 | 25 | 1.6 | 9.7 | 0.00 | 0.15 | 0.00 | 92 | 1013.9 |
| 20260506214540 | 14 | 3 | 0.0 | 6.4 | 0.00 | 0.15 | 0.15 | 92 | 1013.8 |
| 20260506213040 | 14 | 328 | 0.0 | 8.0 | 0.00 | 0.15 | 0.15 | 92 | 1013.9 |
| 20260506211545 | 14 | 36 | 0.0 | 6.4 | 0.00 | 0.15 | 0.15 | 93 | 1013.9 |
| 20260506210037 | 14 | 332 | 0.0 | 9.7 | 0.00 | 0.15 | 0.15 | 92 | 1013.8 |
| 20260506204538 | 14 | 305 | 4.8 | 8.0 | 0.03 | 0.15 | 0.15 | 90 | 1013.7 |
| 20260506203033 | 15 | 330 | 1.6 | 8.0 | 0.05 | 0.15 | 0.15 | 90 | 1013.5 |
| 20260506201531 | 15 | 349 | 0.0 | 0.0 | 0.08 | 0.15 | 0.15 | 88 | 1013.3 |
| 20260506200030 | 15 | 349 | 0.0 | 1.6 | 0.13 | 0.15 | 0.15 | 88 | 1013.1 |
| 20260506194534 | 16 | 320 | 0.0 | 9.7 | 0.13 | 0.13 | 0.13 | 86 | 1012.9 |
| 20260506193024 | 16 | 158 | 3.2 | 6.4 | 0.08 | 0.08 | 0.08 | 83 | 1012.7 |
| 20260506191524 | 16 | 179 | 1.6 | 11.3 | 0.05 | 0.05 | 0.05 | 82 | 1012.4 |
| 20260506190023 | 16 | 191 | 1.6 | 14.5 | 0.03 | 0.03 | 0.03 | 81 | 1012.1 |
| 20260506184527 | 16 | 96 | 1.6 | 14.5 | 0.00 | 0.00 | 0.00 | 78 | 1011.9 |
| 20260506183021 | 16 | 70 | 4.8 | 12.9 | 0.00 | 0.00 | 0.00 | 78 | 1011.8 |
| 20260506181627 | 16 | 141 | 6.4 | 16.1 | 0.00 | 0.00 | 0.00 | 77 | 1011.8 |
| 20260506180021 | 16 | 139 | 6.4 | 16.1 | 0.00 | 0.00 | 0.00 | 77 | 1011.7 |
| 20260506174518 | 16 | 133 | 4.8 | 19.3 | 0.00 | 0.00 | 0.00 | 77 | 1011.6 |
| 20260506173021 | 16 | 191 | 8.0 | 19.3 | 0.00 | 0.00 | 0.00 | 76 | 1011.3 |
| 20260506171523 | 16 | 120 | 8.0 | 19.3 | 0.00 | 0.00 | 0.00 | 78 | 1011.3 |